LFMTLFMD

Guest
Details From LFMT - Montpellier/Mediterranee
To LFMD - Mandelieu
Flight Number -
Tags decoded
Created
Modified
Stats Distance 142 nm / 263 km
Max Altitude 0 ft / 0 m
Waypoints 4
Social Downloads 3
Likes 0
Share VATSIM

Download

Looking for another format? Having issues loading an existing format? Contact us
Advertisement - Login to hide

Notes

Requested: LFMT MTG STP MN232 LFMD

Route

LFMT MTG STP LFMD

ID Type Via Altitude Latitude Longitude Leg Dist Tot Dist Heading (true) Name
O LFMT APT - 0 ft / 0 m 43.57626˚ 3.96326˚ - 0 nm - Montpellier/Mediterranee
MTG VOR - 0 ft / 0 m 43.38631˚ 5.08683˚ 50 nm 50 nm 103° / 104° MARTIGUES VOR-DME
STP VOR - 0 ft / 0 m 43.21947˚ 6.60181˚ 66 nm 117 nm 98° / 99° SAINT TROPEZ VOR-DME
O LFMD APT - 0 ft / 0 m 43.54673˚ 6.95310˚ 24 nm 142 nm 38° / 38° Mandelieu

Altitude Profile

Advertisement - Login to hide

LFMT

Details ICAO LFMT (MPL)
Name Montpellier/Mediterranee
Region France
Timezone Europe/Paris (UTC+1.0)
Stats Elevation 16 ft / 5 m (AMSL)
Location 43.576262° 3.963261°
Runways 2
Magnetic Variation 1.246° E

METAR

LFMT 122130Z AUTO 29003KT CAVOK 04/M01 Q1020 NOSIG

Decode

TAF

TAF LFMT 122000Z 1221/1321 VRB05KT CAVOK TEMPO 1318/1321 BKN014

Decode

Departure Runways

ID Width Length Bearing (true) Bearing (mag) Surface Threshold Offset Overrun Length
13L 164 ft / 50 m 8,525 ft / 2,598 m 124.78° 123.53° Asphalt 0 ft / 0 m 0 ft / 0 m
13R 98 ft / 30 m 3,611 ft / 1,101 m 124.80° 123.55° Asphalt 328 ft / 100 m 0 ft / 0 m
31L 98 ft / 30 m 3,611 ft / 1,101 m 304.81° 303.56° Asphalt 0 ft / 0 m 0 ft / 0 m
31R 164 ft / 50 m 8,525 ft / 2,598 m 304.80° 303.55° Asphalt 0 ft / 0 m 0 ft / 0 m

LFMD

Details ICAO LFMD (CEQ)
Name Mandelieu
Region France
Timezone Europe/Paris (UTC+1.0)
Stats Elevation 12 ft / 4 m (AMSL)
Location 43.546734° 6.953097°
Runways 3
Magnetic Variation 1.955° E

METAR

LFMD 122130Z AUTO VRB02KT CAVOK 04/03 Q1014

Decode

TAF

TAF TAF LFMD 121909Z 1219/1315 CNL

Decode

Destination Runways

ID Width Length Bearing (true) Bearing (mag) Surface Threshold Offset Overrun Length
05 98 ft / 30 m 2,430 ft / 741 m 45.28° 43.32° Asphalt 295 ft / 90 m 0 ft / 0 m
17 148 ft / 45 m 5,287 ft / 1,611 m 172.58° 170.62° Asphalt 689 ft / 210 m 0 ft / 0 m
17L 164 ft / 50 m 1,872 ft / 571 m 172.60° 170.64° Grass 0 ft / 0 m 0 ft / 0 m
23 98 ft / 30 m 2,430 ft / 741 m 225.28° 223.32° Asphalt 98 ft / 30 m 0 ft / 0 m
35 148 ft / 45 m 5,287 ft / 1,611 m 352.58° 350.62° Asphalt 1,148 ft / 350 m 0 ft / 0 m
35R 164 ft / 50 m 1,872 ft / 571 m 352.60° 350.64° Grass 0 ft / 0 m 0 ft / 0 m

Approach Navaids

Runway Type Ident Frequency Range Bearing (true) Bearing (mag) Slope Elevation
35 Localiser CMD 110.35 MHz 18 nm / 33 km 347.58° 345.63° - 12 ft / 4 m (AMSL)

Popular Alternatives